STARLINK-1470 (45772 NORAD) Tracking and Keplerian Element Data

This shows tracking and keplerian element data for the satellite.

Feedback or suggestion? Click here.




ElementValue
Catalog45772
NameSTARLINK-1470
Epoch Orbit973
Epoch Day219.16667824
Epoch Year2020
RAAN32.7118
Inclination53.0006
Eccentricity0.0001695
Argument of Perigee36.5415
Mean Anonmoly112.8739
Mean Motion15.62760144
Decay Rate-0.00016358
L11 45772U 20038AU 20219.16667824 -.00016358 00000-0 -17311-3 0 9993
L22 45772 53.0006 32.7118 0001695 36.5415 112.8739 15.62760144 9734

Live tracking and technical data element details for STARLINK-1470 (NORAD 45772). STARLINK-1470 can be tracked NOW for your location showing map with azimuth and elevation plus other details from your city location.

Track the satellite on the map from your city or location and see movement details for azimuth, elevation, latitude, longitude, range, height, and movement on the map or in text.







IsCatalogInMostPopularTable: catalog: 45772, numindb: 8
Update: records affected: 1



GetName: 45772 STARLINK-1470

Hit Count: updated at: Sat, 08 Aug 2020 00:16:40 GMT